Regional Weather Roundup
Issued by NWS

Home | Current Version | Previous Version | Graphics & Text | Print | Product List | Glossary On
Versions: 1 2 3 4 5 6 7 8 9 10 11 12 13 14 15 16 17 18 19 20 21 22 23 24 25 26 27 28 29 30 31 32 33 34 35 36 37 38 39 40 41 42 43 44 45 46 47 48 49 50
000
ASUS43 KIND 251709
RWRIN

WEATHER ROUNDUP FOR INDIANA
NATIONAL WEATHER SERVICE INDIANAPOLIS IN
100 PM EDT SAT APR 25 2015

NOTE: "FAIR" INDICATES FEW OR NO CLOUDS BELOW 12,000 FEET WITH NO
SIGNIFICANT WEATHER AND/OR OBSTRUCTIONS TO VISIBILITY.

* - STATION DOES NOT REPORT WEATHER SUCH AS PRECIPITATION OR FOG.

+ - STATION NOT QUALITY CONTROLLED BY THE NATIONAL WEATHER SERVICE.
    USE DATA WITH CAUTION...ESPECIALLY DEWPOINT AND RELATIVE
    HUMIDITY OBSERVATIONS.

INZ001>003-010>013-019-020-251800-
NORTHWEST INDIANA

CITY           SKY/WX    TMP DP  RH WIND       PRES   REMARKS
GARY /AIRPORT/ LGT RAIN  46  39  76 E9        29.77R
KNOX *+        CLOUDY    45  34  65 E8        29.76R
LA PORTE +     LGT RAIN  46  44  90 E14       29.77S
MICHIGAN CITY+ LGT RAIN  45  36  70 E3        29.77S
MONTICELLO +   RAIN      42  41  97 E12G23    29.68F
VALPARAISO     LGT RAIN  44  41  89 E16       29.76R

$$

LMZ046-743>745-251800-
SOUTHERN LAKE MICHIGAN

STATION/POSITION TIME  TEMP    WIND        PRES    WAVE
                       AIR SEA DIR/SP/G            HT
                 (UTC) (F)     (DEG/KT/KT) (MB)    (FT)
BURNS HARBOR     1700   45     100/ 14/ 20 1008.1R
MICHIGAN CITY    1700   44      70/ 15/ 19   N/A
5NW MICH CITY    1700   45 44  110/ 14/ 17   N/A     2

$$

INZ004-005-014>016-021>024-251800-
NORTH CENTRAL INDIANA

CITY           SKY/WX    TMP DP  RH WIND       PRES   REMARKS
ELKHART        CLOUDY    46  39  76 E15G25    29.78F
GOSHEN         LGT RAIN  46  39  76 E20       29.78F
LOGANSPORT +   MIX PCPN  41  39  93 E17       29.73F
PERU/GRISSOM   HVY RAIN  43  40  90 E12       29.76R FOG
ROCHESTER +    LGT RAIN  46  43  87 E12G20    29.77R
SOUTH BEND     LGT RAIN  47  40  76 E17G23    29.78F
WARSAW +       LGT RAIN  43  39  87 E14G21    29.77S

$$

INZ006>009-017-018-025>027-251800-
NORTHEAST INDIANA

CITY           SKY/WX    TMP DP  RH WIND       PRES   REMARKS
ANGOLA *+      MOSUNNY   45  39  81 E16       29.80S
AUBURN +       DRIZZLE   46  37  71 E14G20    29.81R
FORT WAYNE     LGT RAIN  45  39  79 E18       29.77F
HUNTINGTON +   LGT RAIN  44  38  80 E10G16    29.75F

$$

INZ028-029-035-036-043>045-051>053-251800-
WEST CENTRAL INDIANA

CITY           SKY/WX    TMP DP  RH WIND       PRES   REMARKS
CRAWFORDSVL +  TSTM      45  40  85 CALM      29.69R
GREENCASTLE +  RAIN      46  43  87 E13       29.64S
LAFAYETTE      LGT RAIN  46  43  89 E14       29.68F
TERRE HAUTE    LGT RAIN  51  49  92 E10       29.61F FOG

$$

INZ030>032-037>040-046>048-054>057-064-065-251800-
CENTRAL INDIANA

CITY           SKY/WX    TMP DP  RH WIND       PRES   REMARKS
ANDERSON       RAIN      45  41  87 E12       29.74R
CP ATTERBURY + RAIN      50  46  87 E13       29.65F
COLUMBUS       LGT RAIN  48  46  93 E14       29.65F FOG
FRANKFORT +    RAIN      45  45 100 NE10      29.71F
GREENWOOD *+   CLOUDY    46  45  93 E12G18    29.65F
INDIANAPOLIS   LGT RAIN  47  44  90 E15       29.64F FOG
-EAGLE CREEK   LGT RAIN  47  44  90 E12       29.66F FOG
KOKOMO *+      CLOUDY    45  39  81 E10       29.77R
MARION +       RAIN      44  38  80 SE10G18   29.75R
MT COMFORT *+  CLOUDY    45 N/A N/A E17       29.68F
SHELBYVILLE    LGT RAIN  50  45  83 E17       29.65F
ZIONSVILLE +   RAIN      46  42  84 E12       29.70R

$$

INZ033-034-041-042-049-050-058-059-251800-
EAST CENTRAL INDIANA

CITY           SKY/WX    TMP DP  RH WIND       PRES   REMARKS
MUNCIE         LGT RAIN  44  39  82 E21       29.74R

$$

INZ060-061-067>069-081>083-085>088-251800-
SOUTHWEST INDIANA

CITY           SKY/WX    TMP DP  RH WIND       PRES   REMARKS
EVANSVILLE     CLOUDY    65  59  81 SW6       29.55F
HUNTINGBURG *+ CLOUDY    57  54  88 SE8       29.58F
WASHINGTON +   CLOUDY    53  50  87 SE10      29.57F FOG

$$

INZ062-063-066-070>080-084-089>092-251800-
SOUTH CENTRAL AND SOUTHEAST INDIANA

CITY           SKY/WX    TMP DP  RH WIND       PRES   REMARKS
BEDFORD +      DRIZZLE   52  48  87 E8        29.61F
BLOOMINGTON    LGT RAIN  50  49  96 E13       29.61F FOG
MADISON *+     CLOUDY    50  46  87 E10       29.66F
NORTH VERNON + LGT RAIN  50  50 100 E7        29.65F
SEYMOUR +      DRIZZLE   52  50  93 SE9       29.64F

$$



USA.gov is the U.S. government's official web portal to all federal, state and local government web resources and services.